Location: *
(41.7492°S, 135.4150°W)
Time: 10:20:16
(UTC+00:00)

Envisat - Pass Details

Date: 23 January 2022
Orbit: 764 x 765 km, 98.2° (Epoch: 25 May)

Event Time Altitude Azimuth Distance (km) Brightness Sun altitude
Rises 11:36:25 0° 61° (ENE) 3,238 6.3 -20.5°
Reaches altitude 10° 11:39:32 10° 82° (E) 2,322 5.8 -20.2°
Maximum altitude 11:42:36 16° 119° (ESE) 1,927 5.9 -19.8°
Drops below altitude 10° 11:45:42 10° 156° (SSE) 2,339 6.6 -19.5°
Sets 11:48:50 0° 176° (S) 3,274 7.2 -19.1°
